FW4540 Weather Reports


Display with metric or nautical units.
time (UTC)temp
F
wind
direction
speed
MPH
gust
MPH
rain 1hr
in
rain 24hr
in
rain mn
in
humidity
%
barometer
mb
20260502122026 74 157 8.0 13.0 0.00 0.00 0.00 39 18.9
20260502121026 75 157 10.0 22.0 0.00 0.00 0.00 39 19.1
20260502113026 73 180 6.0 13.0 0.00 0.00 0.00 45 19.4
20260502111026 73 202 6.0 12.0 0.00 0.00 0.00 45 19.8
20260502110026 73 157 8.0 16.0 0.00 0.00 0.00 46 19.9
20260502105026 73 157 11.0 21.0 0.00 0.00 0.00 45 19.9
20260502103026 71 180 8.0 17.0 0.00 0.00 0.00 47 20.3
20260502101026 71 157 10.0 19.0 0.00 0.00 0.00 48 20.5
20260502091026 68 180 9.0 20.0 0.00 0.00 0.00 55 20.8
20260502071026 62 157 5.0 13.0 0.00 0.00 0.00 66 21.4
20260502070026 61 157 5.0 11.0 0.00 0.00 0.00 66 21.4
20260502064025 60 157 5.0 10.0 0.00 0.00 0.00 67 21.3
20260502063026 60 180 3.0 8.0 0.00 0.00 0.00 67 21.4
20260502062025 58 157 4.0 8.0 0.00 0.00 0.00 68 21.5
20260502061025 58 157 4.0 9.0 0.00 0.00 0.00 68 21.5
20260502060026 58 157 3.0 6.0 0.00 0.00 0.00 68 21.5
20260502055025 58 180 3.0 8.0 0.00 0.00 0.00 67 21.5
20260502054025 58 157 4.0 12.0 0.00 0.00 0.00 66 21.5
20260502053025 58 157 3.0 8.0 0.00 0.00 0.00 65 21.5
20260502052025 58 157 4.0 9.0 0.00 0.00 0.00 65 21.4
20260502045025 56 157 3.0 6.0 0.00 0.00 0.00 66 21.4
20260502044025 57 157 5.0 9.0 0.00 0.00 0.00 65 21.3
20260502043025 56 157 4.0 8.0 0.00 0.00 0.00 65 21.3
20260502042025 56 157 4.0 7.0 0.00 0.00 0.00 66 21.5
20260502041025 57 157 4.0 8.0 0.00 0.00 0.00 66 21.5
20260502040025 57 157 4.0 8.0 0.00 0.00 0.00 66 21.4
20260502035025 57 157 4.0 8.0 0.00 0.00 0.00 66 21.4
20260502033026 58 157 2.0 6.0 0.00 0.00 0.00 63 21.5
20260502032025 58 180 3.0 7.0 0.00 0.00 0.00 62 21.4
20260502031025 58 157 4.0 9.0 0.00 0.00 0.00 65 21.4
20260502025025 58 202 2.0 5.0 0.00 0.00 0.00 66 21.5
20260502024025 58 202 2.0 5.0 0.00 0.00 0.00 66 21.5
20260502023027 59 180 2.0 5.0 0.00 0.00 0.00 65 21.4
20260502022025 59 225 2.0 8.0 0.00 0.00 0.00 65 21.5
20260502020025 59 157 2.0 6.0 0.00 0.00 0.00 65 21.5
20260502015025 60 180 2.0 7.0 0.00 0.00 0.00 65 21.5
20260502014025 60 247 2.0 7.0 0.00 0.00 0.00 65 21.4
20260502012025 61 225 3.0 7.0 0.00 0.00 0.00 66 21.4
20260502011025 61 157 5.0 11.0 0.00 0.00 0.00 67 21.4
20260502004025 62 157 6.0 11.0 0.00 0.00 0.00 69 21.3
20260502003025 62 157 7.0 16.0 0.00 0.00 0.00 70 21.3
20260502002025 62 157 6.0 11.0 0.00 0.00 0.00 72 21.4
20260502001025 62 157 6.0 11.0 0.00 0.00 0.00 74 21.3
20260502000025 62 157 6.0 9.0 0.00 0.00 0.00 74 21.4
20260501235025 62 157 6.0 11.0 0.00 0.00 0.00 74 21.4
20260501234025 63 157 6.0 10.0 0.00 0.00 0.00 74 21.4
20260501233025 63 157 6.0 9.0 0.00 0.00 0.00 74 21.5
20260501232025 63 157 5.0 9.0 0.00 0.00 0.00 74 21.5
20260501230025 63 157 5.0 9.0 0.00 0.00 0.00 75 21.6
20260501225025 63 157 5.0 10.0 0.00 0.00 0.00 76 21.6
20260501224024 63 157 4.0 8.0 0.00 0.00 0.00 76 21.7
20260501223025 62 157 3.0 6.0 0.00 0.00 0.00 77 21.7
20260501222024 62 157 3.0 6.0 0.00 0.00 0.00 77 21.7
20260501221024 63 135 2.0 5.0 0.00 0.00 0.00 77 21.6
20260501220025 62 157 2.0 4.0 0.00 0.00 0.00 77 21.7
20260501215024 62 157 0.0 2.0 0.00 0.00 0.00 78 21.7
20260501214025 62 157 0.0 2.0 0.00 0.00 0.00 77 21.6
20260501213024 63 157 0.0 2.0 0.00 0.00 0.00 77 21.6
20260501211024 63 157 0.0 2.0 0.00 0.00 0.00 76 21.6
20260501210025 63 0 0.0 0.0 0.00 0.00 0.00 77 21.6
20260501205025 63 0 0.0 0.0 0.00 0.00 0.00 76 21.5
20260501203024 63 0 0.0 0.0 0.00 0.00 0.00 78 21.4
20260501202024 64 0 0.0 0.0 0.00 0.00 0.00 75 21.4
20260501201024 64 0 0.0 0.0 0.00 0.00 0.00 77 21.3
20260501200025 63 0 0.0 0.0 0.00 0.00 0.00 79 21.2
20260501195024 63 0 0.0 0.0 0.00 0.00 0.00 81 21.0
20260501194024 64 0 0.0 0.0 0.00 0.00 0.00 81 20.9
20260501193024 65 0 0.0 0.0 0.00 0.00 0.00 78 20.8
20260501192024 65 0 0.0 0.0 0.00 0.00 0.00 79 20.8
20260501191025 67 0 0.0 0.0 0.00 0.00 0.00 77 20.7
20260501185024 68 0 0.0 0.0 0.00 0.00 0.00 74 20.5
20260501184024 70 0 0.0 0.0 0.00 0.00 0.00 70 20.4
20260501183024 71 0 0.0 0.0 0.00 0.00 0.00 63 20.3
20260501182024 72 0 0.0 0.0 0.00 0.00 0.00 61 20.2
20260501181024 72 0 0.0 0.0 0.00 0.00 0.00 60 20.1
20260501180025 73 157 1.0 3.0 0.00 0.00 0.00 59 20.0
20260501174024 75 112 3.0 4.0 0.00 0.00 0.00 54 20.0
20260501173024 75 135 1.0 3.0 0.00 0.00 0.00 55 19.9
20260501172024 76 112 3.0 5.0 0.00 0.00 0.00 52 19.9
20260501171024 75 112 2.0 6.0 0.00 0.00 0.00 53 19.9
20260501170024 75 180 1.0 3.0 0.00 0.00 0.00 55 20.0
20260501165025 75 247 2.0 4.0 0.00 0.00 0.00 54 20.1
20260501163024 76 225 1.0 4.0 0.00 0.00 0.00 55 20.1
20260501162024 76 180 2.0 4.0 0.00 0.00 0.00 52 20.3
20260501161024 76 202 1.0 4.0 0.00 0.00 0.00 55 20.3
20260501160024 76 90 2.0 4.0 0.00 0.00 0.00 51 20.3
20260501153024 76 157 2.0 7.0 0.00 0.00 0.00 52 20.5
20260501152025 76 135 1.0 5.0 0.00 0.00 0.00 54 20.6
20260501151024 76 225 1.0 4.0 0.00 0.00 0.00 57 20.7
20260501150024 76 157 1.0 4.0 0.00 0.00 0.00 56 20.7